2022/12/25 00:00:00,32.2,-0.8
2022/12/25 00:10:00,32.2,-0.8
2022/12/25 00:20:00,32.1,-0.7
2022/12/25 00:30:00,31.9,-0.5
2022/12/25 00:40:00,31.7,-0.5
2022/12/25 00:50:00,31.7,-0.4
2022/12/25 01:00:00,31.7,-0.5
2022/12/25 01:10:00,31.9,-0.6
2022/12/25 01:20:00,31.8,-0.3
2022/12/25 01:30:00,31.4,-0.7
2022/12/25 01:40:00,31.3,-0.6
2022/12/25 01:50:00,31.2,-0.6
2022/12/25 02:00:00,31.0,-0.4
2022/12/25 02:10:00,30.9,-0.9
2022/12/25 02:20:00,30.9,-0.5
2022/12/25 02:30:00,30.9,-0.8
2022/12/25 02:40:00,30.9,-0.5
2022/12/25 02:50:00,30.9,-0.8
2022/12/25 03:00:00,31.1,-0.9
2022/12/25 03:10:00,31.4,-1.1
2022/12/25 03:20:00,31.5,-0.6
2022/12/25 03:30:00,31.4,-0.4
2022/12/25 03:40:00,31.4,-0.7
2022/12/25 03:50:00,31.4,-1.0
2022/12/25 04:00:00,31.2,-0.8
2022/12/25 04:10:00,31.1,-0.7
2022/12/25 04:20:00,31.0,-0.8
2022/12/25 04:30:00,31.1,-0.8
2022/12/25 04:40:00,31.1,-0.7
2022/12/25 04:50:00,31.2,-0.6
2022/12/25 05:00:00,31.5,-0.9
2022/12/25 05:10:00,31.8,-0.7
2022/12/25 05:20:00,31.9,-0.5
2022/12/25 05:30:00,31.9,-0.7
2022/12/25 05:40:00,31.8,-0.4
2022/12/25 05:50:00,31.9,-0.7
2022/12/25 06:00:00,31.9,-0.4
2022/12/25 06:10:00,31.9,-0.7
2022/12/25 06:20:00,32.0,-0.5
2022/12/25 06:30:00,32.0,-0.5
2022/12/25 06:40:00,31.9,-1.1
2022/12/25 06:50:00,31.7,-0.6
2022/12/25 07:00:00,31.4,-0.8
2022/12/25 07:10:00,31.4,-0.6
2022/12/25 07:20:00,31.4,-0.4
2022/12/25 07:30:00,31.4,-0.4
2022/12/25 07:40:00,31.4,-0.4
2022/12/25 07:50:00,31.4,-0.1
2022/12/25 08:00:00,31.4,-0.1
2022/12/25 08:10:00,31.4,-0.2
2022/12/25 08:20:00,31.4, 0.3
2022/12/25 08:30:00,31.3, 0.5
2022/12/25 08:40:00,31.3, 0.9
2022/12/25 08:50:00,31.3, 0.7
2022/12/25 09:00:00,31.1, 0.6
2022/12/25 09:10:00,30.9, 1.4
2022/12/25 09:20:00,30.5, 2.3
2022/12/25 09:30:00,30.5, 2.6
2022/12/25 09:40:00,30.5, 1.6
2022/12/25 09:50:00,30.6, 1.8
2022/12/25 10:00:00,30.7, 2.8
2022/12/25 10:10:00,30.8, 3.5
2022/12/25 10:20:00,30.7, 3.1
2022/12/25 10:30:00,30.6, 3.4
2022/12/25 10:40:00,30.5, 3.1
2022/12/25 10:50:00,30.5, 3.4
2022/12/25 11:00:00,30.5, 3.6
2022/12/25 11:10:00,30.4, 3.5
2022/12/25 11:20:00,30.3, 3.4
2022/12/25 11:30:00,30.1, 3.9
2022/12/25 11:40:00,30.2, 3.9
2022/12/25 11:50:00,30.1, 3.5
2022/12/25 12:00:00,30.0, 4.5
2022/12/25 12:10:00,29.8, 4.7
2022/12/25 12:20:00,29.6, 5.2
2022/12/25 12:30:00,29.6, 4.6
2022/12/25 12:40:00,29.7, 5.0
2022/12/25 12:50:00,29.6, 5.7
2022/12/25 13:00:00,29.6, 3.1
2022/12/25 13:10:00,29.5, 3.0
2022/12/25 13:20:00,29.3, 3.9
2022/12/25 13:30:00,29.3, 3.5
2022/12/25 13:40:00,29.1, 2.5
2022/12/25 13:50:00,29.1, 2.5
2022/12/25 14:00:00,29.1, 2.3
2022/12/25 14:10:00,29.1, 2.0
2022/12/25 14:20:00,29.0, 1.5
2022/12/25 14:30:00,29.0, 1.6
2022/12/25 14:40:00,28.8, 1.2
2022/12/25 14:50:00,28.7, 0.7
2022/12/25 15:00:00,28.8, 0.4
2022/12/25 15:10:00,28.7, 0.4
2022/12/25 15:20:00,28.7, 0.4
2022/12/25 15:30:00,28.9,-0.1
2022/12/25 15:40:00,29.5,-0.6
2022/12/25 15:50:00,31.2,-0.3
2022/12/25 16:00:00,32.0,-0.4
2022/12/25 16:10:00,32.4,-0.4
2022/12/25 16:20:00,32.8,-0.5
2022/12/25 16:30:00,33.4,-0.1
2022/12/25 16:40:00,33.8,-0.2
2022/12/25 16:50:00,34.0,-0.6
2022/12/25 17:00:00,34.5,-0.5
2022/12/25 17:10:00,35.1,-0.3
2022/12/25 17:20:00,35.7,-0.5
2022/12/25 17:30:00,35.8,-0.2
2022/12/25 17:40:00,35.7,-0.5
2022/12/25 17:50:00,35.4,-0.5
2022/12/25 18:00:00,35.4,-0.3
2022/12/25 18:10:00,35.7,-0.7
2022/12/25 18:20:00,35.4,-0.3
2022/12/25 18:30:00,35.4,-0.4
2022/12/25 18:40:00,35.3,-0.6
2022/12/25 18:50:00,35.6,-0.4
2022/12/25 19:00:00,35.9,-0.1
2022/12/25 19:10:00,36.1,-0.7
2022/12/25 19:20:00,36.0,-0.2
2022/12/25 19:30:00,35.8,-0.1
2022/12/25 19:40:00,35.5,-0.1
2022/12/25 19:50:00,35.6, 0.2
2022/12/25 20:00:00,35.8,-0.4
2022/12/25 20:10:00,36.2,-0.5
2022/12/25 20:20:00,36.1,-0.4
2022/12/25 20:30:00,35.9,-0.3
2022/12/25 20:40:00,35.8,-0.5
2022/12/25 20:50:00,35.6,-0.5
2022/12/25 21:00:00,35.4,-0.4
2022/12/25 21:10:00,35.3,-0.4
2022/12/25 21:20:00,35.6,-0.6
2022/12/25 21:30:00,35.7,-0.3
2022/12/25 21:40:00,35.3,-0.4
2022/12/25 21:50:00,35.4,-0.5
2022/12/25 22:00:00,35.6,-0.5
2022/12/25 22:10:00,35.6,-0.6
2022/12/25 22:20:00,35.5,-0.8
2022/12/25 22:30:00,35.5,-1.3
2022/12/25 22:40:00,35.5,-1.3
2022/12/25 22:50:00,35.5,-1.2
2022/12/25 23:00:00,35.5,-1.2
2022/12/25 23:10:00,35.4,-1.2
2022/12/25 23:20:00,35.3,-1.2
2022/12/25 23:30:00,35.2,-1.1
2022/12/25 23:40:00,35.0,-1.1
2022/12/25 23:50:00,34.9,-1.0
